Time,TemperatureF,DewpointF,PressureIn,WindDirection,WindDirectionDegrees,WindSpeedMPH,WindSpeedGustMPH,Humidity,HourlyPrecipIn,Conditions,Clouds,dailyrainin,SoftwareType,DateUTC
2013-07-04 00:04:00,66.0,57.8,30.07,North,0,0.0,0.0,75,0.00,,,0.00,WUHU21623XXSP,2013-07-04 05:04:00,
2013-07-04 00:09:00,65.7,58.0,30.07,North,0,0.0,0.0,76,0.00,,,0.00,WUHU21623XXSP,2013-07-04 05:09:00,
2013-07-04 00:14:00,65.5,57.7,30.07,North,0,0.0,0.0,77,0.00,,,0.00,WUHU21623XXSP,2013-07-04 05:14:00,
2013-07-04 00:19:00,65.3,58.1,30.07,North,0,0.0,0.0,77,0.00,,,0.00,WUHU21623XXSP,2013-07-04 05:19:00,
2013-07-04 00:24:00,65.1,57.7,30.07,North,0,0.0,0.0,77,0.00,,,0.00,WUHU21623XXSP,2013-07-04 05:24:00,
2013-07-04 00:29:00,64.9,58.1,30.07,North,0,0.0,0.0,78,0.00,,,0.00,WUHU21623XXSP,2013-07-04 05:29:00,
2013-07-04 00:34:00,64.9,57.9,30.07,North,0,0.0,0.0,78,0.00,,,0.00,WUHU21623XXSP,2013-07-04 05:34:00,
2013-07-04 00:39:00,64.8,57.7,30.07,North,0,0.0,0.0,79,0.00,,,0.00,WUHU21623XXSP,2013-07-04 05:39:00,
2013-07-04 00:44:00,64.8,58.1,30.07,North,0,0.0,0.0,79,0.00,,,0.00,WUHU21623XXSP,2013-07-04 05:44:00,
2013-07-04 00:49:00,64.6,57.9,30.07,North,0,0.0,0.0,79,0.00,,,0.00,WUHU21623XXSP,2013-07-04 05:49:00,
2013-07-04 00:54:00,64.6,57.9,30.07,North,0,0.0,0.0,79,0.00,,,0.00,WUHU21623XXSP,2013-07-04 05:54:00,
2013-07-04 00:59:00,64.4,57.7,30.07,North,0,0.0,0.0,80,0.00,,,0.00,WUHU21623XXSP,2013-07-04 05:59:00,
2013-07-04 01:04:00,64.2,57.9,30.07,North,0,0.0,0.0,80,0.00,,,0.00,WUHU21623XXSP,2013-07-04 06:04:00,
2013-07-04 01:09:00,64.2,57.9,30.07,North,0,0.0,0.0,80,0.00,,,0.00,WUHU21623XXSP,2013-07-04 06:09:00,
2013-07-04 01:14:00,64.2,57.9,30.07,North,0,0.0,0.0,80,0.00,,,0.00,WUHU21623XXSP,2013-07-04 06:14:00,
2013-07-04 01:19:00,64.0,58.1,30.07,North,0,0.0,0.0,81,0.00,,,0.00,WUHU21623XXSP,2013-07-04 06:19:00,
2013-07-04 01:24:00,64.0,58.1,30.07,North,0,0.0,0.0,81,0.00,,,0.00,WUHU21623XXSP,2013-07-04 06:24:00,
2013-07-04 01:29:00,63.9,57.9,30.07,North,0,0.0,0.0,81,0.00,,,0.00,WUHU21623XXSP,2013-07-04 06:29:00,
2013-07-04 01:34:00,63.7,58.1,30.07,North,0,0.0,0.0,82,0.00,,,0.00,WUHU21623XXSP,2013-07-04 06:34:00,
2013-07-04 01:39:00,63.7,58.1,30.07,North,0,0.0,0.0,82,0.00,,,0.00,WUHU21623XXSP,2013-07-04 06:39:00,
2013-07-04 01:44:00,63.7,58.1,30.07,North,0,0.0,0.0,82,0.00,,,0.00,WUHU21623XXSP,2013-07-04 06:44:00,
2013-07-04 01:49:00,63.7,58.1,30.07,North,0,0.0,0.0,82,0.00,,,0.00,WUHU21623XXSP,2013-07-04 06:49:00,
2013-07-04 01:54:00,63.7,58.1,30.07,North,0,0.0,0.0,82,0.00,,,0.00,WUHU21623XXSP,2013-07-04 06:54:00,
2013-07-04 01:59:00,63.7,58.1,30.07,North,0,0.0,0.0,82,0.00,,,0.00,WUHU21623XXSP,2013-07-04 06:59:00,
2013-07-04 02:04:00,63.7,58.4,30.07,North,0,0.0,0.0,83,0.00,,,0.00,WUHU21623XXSP,2013-07-04 07:04:00,
2013-07-04 02:09:00,63.7,58.1,30.06,North,0,0.0,0.0,82,0.00,,,0.00,WUHU21623XXSP,2013-07-04 07:09:00,
2013-07-04 02:14:00,63.5,57.9,30.06,North,0,0.0,0.0,82,0.00,,,0.00,WUHU21623XXSP,2013-07-04 07:14:00,
2013-07-04 02:19:00,63.3,57.9,30.06,North,0,0.0,0.0,82,0.00,,,0.00,WUHU21623XXSP,2013-07-04 07:19:00,
2013-07-04 02:24:00,63.3,57.7,30.06,North,0,0.0,0.0,82,0.00,,,0.00,WUHU21623XXSP,2013-07-04 07:24:00,
2013-07-04 02:29:00,63.1,57.5,30.06,North,0,0.0,0.0,82,0.00,,,0.00,WUHU21623XXSP,2013-07-04 07:29:00,
2013-07-04 10:36:00,83.1,62.6,30.08,North,0,0.0,0.0,50,0.00,,,0.00,WUHU21623XXSP,2013-07-04 15:36:00,
2013-07-04 10:41:00,83.1,63.6,30.08,North,0,0.0,0.0,52,0.00,,,0.00,WUHU21623XXSP,2013-07-04 15:41:00,
2013-07-04 10:46:00,83.5,64.0,30.08,North,0,0.0,0.0,52,0.00,,,0.00,WUHU21623XXSP,2013-07-04 15:46:00,
2013-07-04 10:51:00,84.0,63.5,30.08,North,0,0.0,0.0,50,0.00,,,0.00,WUHU21623XXSP,2013-07-04 15:51:00,
2013-07-04 10:56:00,84.6,64.5,30.08,North,0,0.0,0.0,51,0.00,,,0.00,WUHU21623XXSP,2013-07-04 15:56:00,
2013-07-04 11:01:00,84.6,63.4,30.08,North,0,0.0,0.0,49,0.00,,,0.00,WUHU21623XXSP,2013-07-04 16:01:00,
2013-07-04 11:06:00,84.4,63.2,30.08,North,0,0.0,0.0,49,0.00,,,0.00,WUHU21623XXSP,2013-07-04 16:06:00,
2013-07-04 11:11:00,84.4,62.6,30.08,North,0,0.0,0.0,48,0.00,,,0.00,WUHU21623XXSP,2013-07-04 16:11:00,
2013-07-04 11:16:00,84.4,62.6,30.08,North,0,0.0,0.0,48,0.00,,,0.00,WUHU21623XXSP,2013-07-04 16:16:00,
2013-07-04 11:21:00,84.4,62.6,30.08,North,0,0.0,0.0,48,0.00,,,0.00,WUHU21623XXSP,2013-07-04 16:21:00,
2013-07-04 11:26:00,84.0,61.6,30.08,North,0,0.0,0.0,47,0.00,,,0.00,WUHU21623XXSP,2013-07-04 16:26:00,
2013-07-04 11:31:00,84.2,62.4,30.08,North,0,0.0,0.0,48,0.00,,,0.00,WUHU21623XXSP,2013-07-04 16:31:00,
2013-07-04 11:36:00,84.4,62.6,30.09,North,0,0.0,0.0,48,0.00,,,0.00,WUHU21623XXSP,2013-07-04 16:36:00,
2013-07-04 23:45:00,70.3,60.8,30.05,North,0,0.0,0.0,72,0.00,,,0.00,WUHU21623XXSP,2013-07-05 04:45:00,
2013-07-04 23:47:00,70.3,61.2,30.05,North,0,0.0,0.0,73,0.00,,,0.00,WUHU21623XXSP,2013-07-05 04:47:00,
2013-07-04 23:50:00,70.2,61.2,30.05,North,0,0.0,0.0,73,0.00,,,0.00,WUHU21623XXSP,2013-07-05 04:50:00,
2013-07-04 23:52:00,70.2,61.0,30.05,North,0,0.0,0.0,73,0.00,,,0.00,WUHU21623XXSP,2013-07-05 04:52:00,
2013-07-04 23:57:00,70.0,61.2,30.05,North,0,0.0,0.0,74,0.00,,,0.00,WUHU21623XXSP,2013-07-05 04:57:00,